Location: Hancock Field Station
(44.9202°N, 120.4259°W)
Time: 15:40:37
(UTC-07:00)

Nadezhda 4 Rocket - Visible Passes

Search period start: 27 April 2017 00:00
Search period end: 07 May 2017 00:00
Orbit: 950 x 992 km, 82.9° (Epoch: 26 April)

Date Brightness Start Highest point End Pass type
(mag) Time Alt. Az. Time Alt. Az. Time Alt. Az.
27 Apr 5.5 20:43:13 10° NNW 20:49:00 40° W 20:54:49 10° SSW visible
28 Apr 6.4 21:07:57 10° NNW 21:12:46 24° W 21:17:36 10° SW visible
29 Apr 6.8 21:33:33 10° NW 21:36:22 13° WNW 21:39:13 10° WSW visible
01 May 6.2 20:34:37 10° NNW 20:39:55 29° W 20:45:13 10° SW visible
02 May 6.8 20:59:45 10° NW 21:03:35 17° W 21:07:27 10° WSW visible
06 May 7.2 20:52:13 10° WNW 20:54:21 12° WNW 20:56:29 10° W visible
